CST,Max TemperatureF,Mean TemperatureF,Min TemperatureF,Max Dew PointF,MeanDew PointF,Min DewpointF,Max Humidity, Mean Humidity, Min Humidity, Max Sea Level PressureIn, Mean Sea Level PressureIn, Min Sea Level PressureIn, Max VisibilityMiles, Mean VisibilityMiles, Min VisibilityMiles, Max Wind SpeedMPH, Mean Wind SpeedMPH, Max Gust SpeedMPH,PrecipitationIn, CloudCover, Events, WindDirDegrees
2012-12-1,56,43,29,54,44,30,100,93,85,30.04,29.86,29.77,6,3,0,12,4,15,0.00,7,Fog,169
2012-12-2,55,46,37,52,45,37,100,83,66,30.03,29.93,29.85,6,2,0,16,7,21,0.00,6,Fog,198
2012-12-3,68,51,33,58,48,30,100,77,53,30.03,29.77,29.63,10,6,0,28,13,35,0.00,4,Fog,186
2012-12-4,57,42,27,28,25,19,85,58,30,30.38,30.21,30.05,10,10,9,15,7,18,0.00,0,,326
2012-12-5,43,32,21,34,24,17,84,69,53,30.40,30.23,30.00,10,10,10,18,10,25,0.00,1,,131
2012-12-6,49,42,34,45,36,33,100,78,56,30.00,29.94,29.90,10,10,4,15,8,21,0.11,6,Rain,240
2012-12-7,42,37,32,33,29,25,92,76,59,30.00,29.97,29.91,10,10,9,15,7,17,0.00,6,,27
2012-12-8,38,31,23,34,28,19,96,80,64,30.06,29.99,29.95,10,7,1,12,5,15,0.06,5,Snow,110
2012-12-9,36,27,18,36,29,13,100,87,73,29.97,29.89,29.81,10,5,1,31,13,41,0.12,8,Snow,186
2012-12-10,27,19,11,15,10,7,84,67,50,30.05,29.99,29.95,10,10,10,25,10,32,0.00,4,,286
2012-12-11,40,26,12,25,19,9,92,73,54,30.06,29.99,29.92,10,10,10,22,8,29,0.00,2,,239
2012-12-12,50,36,21,21,19,16,84,57,29,30.09,30.05,30.01,10,10,10,25,12,33,0.00,0,,184
2012-12-13,51,37,23,24,19,15,75,54,32,30.11,30.05,30.02,10,10,10,22,10,25,0.00,0,,204
2012-12-14,51,36,20,36,27,18,92,69,46,30.12,29.96,29.73,10,10,9,14,6,18,T,2,,141
2012-12-15,48,43,37,46,43,34,100,83,65,29.71,29.55,29.47,10,6,2,20,10,26,0.41,8,Rain,186
2012-12-16,37,31,24,34,30,21,100,89,78,29.82,29.74,29.65,10,5,2,17,10,22,0.00,8,,311
2012-12-17,30,26,22,28,24,19,100,92,84,29.81,29.75,29.68,10,7,2,12,2,14,0.00,8,,74
2012-12-18,35,31,27,32,30,27,100,91,82,29.90,29.65,29.49,8,5,2,22,8,28,0.00,7,,258
2012-12-19,35,31,26,32,30,25,100,91,82,30.01,29.88,29.71,6,2,0,26,8,33,0.46,6,Fog-Rain-Snow-Thunderstorm,66
2012-12-20,32,22,12,32,20,7,100,90,80,30.11,29.80,29.62,10,2,0,41,28,54,0.10,6,Fog-Snow,333
2012-12-21,20,12,3,12,6,1,91,79,67,30.34,30.29,30.13,10,10,8,22,8,26,0.00,0,,297
2012-12-22,29,15,1,19,10,-1,100,84,68,30.28,30.09,29.98,10,8,5,16,4,20,0.00,0,,126
2012-12-23,20,15,10,15,12,7,92,83,73,30.10,30.05,29.99,8,6,4,16,8,18,0.00,3,,26
2012-12-24,20,15,10,17,11,-1,92,83,73,30.30,30.07,29.96,10,6,2,16,8,18,0.00,6,Snow,320
2012-12-25,10,5,-1,3,-1,-5,87,80,73,30.50,30.42,30.32,10,10,10,18,12,24,0.00,0,,349
2012-12-26,18,10,1,11,3,-3,92,83,73,30.37,30.30,30.25,10,10,8,14,7,17,0.00,0,,337
2012-12-27,24,13,1,20,11,-1,95,86,77,30.26,30.17,30.06,10,9,7,13,4,16,0.00,5,,72
2012-12-28,27,21,15,23,21,14,93,87,80,30.06,29.99,29.93,6,3,1,13,5,,0.01,8,Snow,18
2012-12-29,19,9,-1,16,8,-2,96,85,73,30.28,30.17,30.02,10,6,2,20,8,24,T,5,Snow,295
2012-12-30,35,17,-1,25,11,-4,95,80,64,30.31,30.17,30.02,10,8,4,20,7,24,0.00,0,,177
2012-12-31,24,15,5,14,9,-1,84,75,66,30.30,30.20,30.09,10,10,10,23,12,28,0.00,4,,332